Погода в Еткуле

Россия / Челябинская область     54°49′22″N   61°35′00″E
темп.,
°C
ветер,
м/с
пор.,
м/с
влажн.,
%
обл.,
%
осадки,
мм/ч
давл.,
гПа
погр.,
м
26 июля, пн
пн2623:00+12сз49705 0.0 1017163
02:00+10ссз476821 0.0 1018110
05:00+9ссз34692 0.0 101964
08:00+13с46600 0.0 1020333
11:00+18ссз454287 0.0 10202145
14:00+18ссз4641100 0.0 10201683
17:00+18ссз5643100 0.0 10191637
20:00+16сз365724 0.0 1019137
27 июля, вт
вт2723:00+14зсз346066 0.0 101898
02:00+11з467232 0.0 101892
05:00+10з477380 0.0 1018104
08:00+15з485759 0.0 1017274
11:00+20з68445 0.0 10151433
14:00+19сз475287 0.0 1014574
17:00+17сз395999 0.1 1013303
20:00+17зюз366297 0.0 1012135
28 июля, ср
ср2823:00+16з51367100 0.1 1012659
02:00+13сз5109499 1.2 1011331
05:00+11ссз489341 1.3 1012275
08:00+13ссз58702 0.0 1013521
11:00+16сз684669 0.0 10131987
14:00+17сз6941100 0.0 10132322
17:00+16сз584761 0.0 1013750
20:00+16зсз4953100 0.0 1013327
29 июля, чт
чт2923:00+11сз34705 0.0 101451
02:00+10з22745 0.0 101416
05:00+12юз376672 0.0 1013154
08:00+16зюз485542 0.0 1013324
11:00+21з683619 0.0 10112487
14:00+23з5835100 0.0 10102575
17:00+24зюз5936100 0.0 10092075
20:00+19зюз2256100 0.0 100826
30 июля, пт
пт3023:00+17зюз41056100 0.0 1008182
02:00+15юз3996100 2.0 1008359
05:00+15ююз61596100 10.7 1005711
08:00+15юз51094100 2.0 1005458
11:00+20зсз3476100 2.0 1005840
14:00+22зсз346271 0.2 10051281
17:00+23з456357 0.4 10051157
20:00+20юз3381100 0.1 100569